This is the latest recevied weather packets stored in our database for station/object XW7RMR. If no packets are shown the sender has not sent any weather packets the latest 10 day(s).
| Time | Temp. | Humidity | Pressure | Rain* | Wind** | Luminosity | Snow |
|---|---|---|---|---|---|---|---|
| 1777658421 | 16.67° C | 67% | 1016 hPa | 0 mm | - | 574 W/m² | - |
| 1777658118 | 17.22° C | 65% | 1016 hPa | 0 mm | - | 529 W/m² | - |
| 1777657815 | 16.11° C | 69% | 1016.1 hPa | 0 mm | - | 559 W/m² | - |
| 1777657512 | 17.78° C | 66% | 1016 hPa | 0 mm | - | 572 W/m² | - |
| 1777657210 | 17.22° C | 68% | 1016.1 hPa | 0 mm | - | 562 W/m² | - |
| 1777656907 | 16.67° C | 69% | 1016.2 hPa | 0 mm | - | 603 W/m² | - |
| 1777656603 | 16.11° C | 73% | 1016.1 hPa | 0 mm | - | 575 W/m² | - |
| 1777656298 | 16.67° C | 71% | 1016.3 hPa | 0 mm | - | 544 W/m² | - |
| 1777655994 | 16.11° C | 72% | 1016.2 hPa | 0 mm | - | 483 W/m² | - |
| 1777655690 | 16.11° C | 70% | 1016.2 hPa | 0 mm | - | 457 W/m² | - |
| 1777655387 | 15° C | 73% | 1016.1 hPa | 0 mm | - | 475 W/m² | - |
| 1777655084 | 15.56° C | 73% | 1016.1 hPa | 0 mm | - | 428 W/m² | - |
| 1777654782 | 15.56° C | 72% | 1016 hPa | 0 mm | - | 478 W/m² | - |
| 1777654479 | 14.44° C | 73% | 1016.2 hPa | 0 mm | - | 466 W/m² | - |
| 1777654177 | 15° C | 75% | 1016 hPa | 0 mm | - | 476 W/m² | - |
| 1777653874 | 15.56° C | 73% | 1016.1 hPa | 0 mm | - | 463 W/m² | - |
| 1777653571 | 16.11° C | 72% | 1016.2 hPa | 0 mm | - | 461 W/m² | - |
| 1777653267 | 15° C | 75% | 1016.3 hPa | 0 mm | - | 373 W/m² | - |
| 1777652964 | 14.44° C | 77% | 1016.4 hPa | 0 mm | - | 348 W/m² | - |
| 1777652660 | 15° C | 76% | 1016.3 hPa | 0 mm | - | 365 W/m² | - |
| 1777652357 | 15° C | 76% | 1016.2 hPa | 0 mm | - | 375 W/m² | - |
| 1777652054 | 14.44° C | 76% | 1016.5 hPa | 0 mm | - | 336 W/m² | - |
| 1777651751 | 13.33° C | 82% | 1016.5 hPa | 0 mm | - | 290 W/m² | - |
| 1777651448 | 12.78° C | 83% | 1016.5 hPa | 0 mm | - | 219 W/m² | - |
| 1777651145 | 12.78° C | 83% | 1016.4 hPa | 0 mm | - | 195 W/m² | - |
* Rain latest hour (hover to see other rain measurements)
** Current wind speed in m/s (hover to see current wind gust speed)